Location: Czerna
(49.9000°N, 19.6167°E)
Time: 16:24:14
(UTC+00:00)

Daily predictions for brighter satellites

Satellite Brightness Start Highest point End
(mag) Time Altitude Azimuth Time Altitude Azimuth Time Altitude Azimuth
ATLAS 2AS CENTAUR R/B 3.0 18:48:35 10° NW 18:56:05 69° NE 19:02:58 10° SE
COSMOS 2406 3.7 18:51:56 10° NW 18:57:32 61° WSW 19:03:07 10° SSE
Cosmos 2278 Rocket 2.2 18:53:23 10° SSW 18:59:01 74° ESE 19:04:41 10° NNE
Cosmos 1515 Rocket 3.7 18:56:14 10° S 19:00:31 54° E 19:04:47 10° NNE
Cosmos 1633 Rocket 3.9 18:56:30 10° NNW 19:00:49 55° W 19:05:08 10° S
Cosmos 1271 Rocket 3.5 18:57:54 10° SSE 19:01:33 35° E 19:05:14 10° NNE
USA 215 3.9 18:55:32 10° ENE 19:01:58 62° NNW 19:08:23 10° W
Cosmos 158 Rocket 3.9 18:59:58 10° NNW 19:04:52 79° ENE 19:09:50 10° SSE
Cosmos 1536 4.1 19:01:29 10° NNE 19:04:56 26° ENE 19:08:21 10° SE
Cosmos 2315 Rocket 4.2 19:01:00 10° S 19:07:24 83° W 19:13:49 10° N
Cosmos 2228 Rocket 4.0 19:04:26 10° SSE 19:08:19 30° E 19:12:16 10° NNE
Cosmos 1328 Rocket 3.9 19:05:57 10° SSW 19:10:22 72° W 19:14:47 10° N
Cosmos 1666 2.6 19:09:18 10° N 19:13:03 74° E 19:16:45 10° SSE
Resurs 01 Rocket 1.7 19:08:50 10° SSE 19:13:17 88° W 19:17:45 10° NNW
CRYOSAT 2 4.4 19:09:22 10° SSE 19:14:14 76° E 19:19:09 10° N
Cosmos 923 Rocket 4.1 19:09:05 10° NNW 19:14:21 70° ENE 19:19:39 10° SSE
EP 1 4.3 19:11:22 10° SSW 19:14:26 67° SE 19:17:04 10° NE
Cosmos 1470 Rocket 4.1 19:14:48 10° NNW 19:19:15 61° W 19:23:39 10° S
SL-24 R/B - RUBIN 2 4.0 19:14:57 10° NW 19:20:34 79° NE 19:25:17 11° SE
Terra 3.3 19:16:58 10° ESE 19:20:46 24° ENE 19:24:34 10° N
Cosmos 1818 3.9 19:16:17 10° NW 19:21:44 60° NE 19:27:02 11° SE
Meteor 2-6 Rocket 4.2 19:17:05 10° S 19:22:32 79° E 19:28:11 10° NNE
Tianhe-1 2.9 19:21:15 10° SSW 19:23:18 16° S 19:24:48 12° SE
Cosmos 1833 Rocket 3.9 19:18:21 10° NW 19:23:35 40° WSW 19:28:47 10° S
Cosmos 1812 2.9 19:21:13 10° SSW 19:25:04 76° W 19:28:57 10° N
CARTOSAT-1 4.2 19:21:53 10° SE 19:25:52 42° ENE 19:29:57 10° N
Cosmos 2084 Rocket 3.5 19:23:50 10° NW 19:28:05 77° NE 19:32:06 12° SE
Cosmos 1933 Rocket 3.9 19:28:34 10° NNW 19:32:54 66° W 19:37:12 10° S
IGS 5A 3.9 19:29:09 10° S 19:33:15 62° W 19:37:23 10° NNW
RESURS DK-1 4.4 19:33:01 10° N 19:36:05 19° NE 19:39:09 10° E
SJ 16-02 1.8 19:31:45 10° SSW 19:36:09 68° WNW 19:40:35 10° NNE
CZ-2C R/B 3.7 19:37:46 10° NNE 19:42:19 75° ESE 19:46:55 10° S
Meteor 1-27 Rocket 4.0 19:36:41 10° S 19:42:25 58° E 19:48:15 10° NNE
Cosmos 1743 3.5 19:43:46 10° N 19:47:25 38° ENE 19:50:00 17° SE
Cosmos 1733 Rocket 4.1 19:45:03 10° N 19:48:53 30° ENE 19:51:42 16° SE
Cosmos 2112 Rocket 4.1 19:47:22 10° NNW 19:52:46 88° WSW 19:57:14 15° SSE
ERS-1 Rocket 3.1 19:49:16 15° SSE 19:53:23 62° ENE 19:58:22 10° N
ERBS 2.3 19:50:54 10° WNW 19:54:12 70° SW 19:56:16 21° SE
SPOT 5 3.2 19:51:32 15° SSE 19:55:49 64° ENE 20:01:09 10° N
Cosmos 1238 Rocket 4.3 19:53:28 10° N 19:58:57 40° ENE 20:02:20 18° SE
ARIANE 5 R/B 2.6 19:55:47 15° SSE 19:59:24 88° WSW 20:03:46 10° NNW
USA 245 3.0 20:00:07 18° SSW 20:01:34 43° W 20:03:59 10° NNW
SPOT 1/Viking Rocket 3.9 19:56:33 10° S 20:01:41 62° WSW 20:06:51 10° NNW
Spot 2 Rocket 3.6 19:57:54 13° S 20:02:23 79° WSW 20:07:28 10° NNW
Cosmos 1937 Rocket 3.7 19:58:16 10° S 20:03:13 50° ESE 20:08:15 10° NNE
Cosmos 2297 3.7 19:59:20 10° SSW 20:04:58 65° ESE 20:10:36 10° NNE
Gbstr 26 Del rocket 4.3 19:58:03 10° WNW 20:05:44 66° SSW 20:10:53 18° SE
ISS -3.9 20:06:43 10° WSW 20:10:05 77° SSE 20:13:28 10° ENE
Meteor 1-11 Rocket 4.4 20:07:11 10° NNW 20:13:01 57° W 20:18:41 10° S
Cosmos 1340 Rocket 2.9 20:11:51 10° NNW 20:15:56 78° W 20:18:40 20° S
Cosmos 2082 Rocket 3.6 20:11:43 10° NW 20:16:31 30° WSW 20:21:20 10° SSW
Cosmos 2154 Rocket 4.3 20:11:29 10° NNW 20:17:46 69° W 20:23:27 13° S
Cosmos 1680 Rocket 4.2 20:12:42 10° NNW 20:17:50 50° WSW 20:22:04 15° S
Cosmos 1867 4.4 20:15:58 19° SSE 20:18:44 30° ESE 20:23:26 10° NE
H-2A R/B 3.9 20:16:37 10° NNE 20:20:39 44° E 20:22:44 24° SSE
Cosmos 962 Rocket 4.4 20:14:46 10° N 20:20:55 79° E 20:25:27 19° SSE
Okean 1 3.8 20:19:29 25° SSE 20:21:22 43° E 20:25:09 10° NNE
Cosmos 1943 Rocket 2.1 20:15:52 10° SSW 20:21:26 66° ESE 20:26:59 10° NNE
Cosmos 858 Rocket 4.5 20:16:25 10° SSW 20:21:35 68° ESE 20:26:48 10° NNE
Nadezhda 1 Rocket 4.1 20:16:03 10° SSW 20:22:19 78° W 20:28:32 10° N
Cosmos 1461 3.1 20:19:06 10° SSW 20:23:45 65° SE 20:28:19 10° NE
Cosmos 1515 3.9 20:21:57 26° SSE 20:23:50 53° E 20:27:32 10° NNE
Cosmos 1544 3.9 20:29:34 10° NNW 20:33:03 45° W 20:35:19 19° SSW
BREEZE-M R/B 1.7 20:30:49 10° W 20:33:14 68° SSW 20:33:56 42° SE
ATLAS CENTAUR R/B 2.4 20:35:24 22° ESE 20:35:24 22° ESE 20:37:58 10° ENE
CZ-4B DEB 4.2 20:35:14 34° S 20:36:29 79° WSW 20:39:43 10° NNW
Cosmos 1862 Rocket 3.6 20:37:29 28° SSE 20:39:36 58° E 20:43:51 10° NNE
SL-27 R/B 3.8 20:37:54 10° N 20:40:49 27° ENE 20:42:01 21° E
Cosmos 1536 4.4 20:37:47 10° NNW 20:41:21 31° W 20:44:24 13° SSW
Cosmos 372 Rocket 4.0 20:38:32 21° S 20:41:53 61° ESE 20:46:55 10° NNE
Cosmos 1607 4.3 20:38:47 18° S 20:43:17 45° ESE 20:49:25 10° NE
Cosmos 2278 Rocket 4.5 20:38:59 10° W 20:43:42 26° NW 20:48:26 10° NNE
USA 215 4.2 20:38:16 10° ENE 20:44:29 48° N 20:50:42 10° WNW
Cosmos 2369 Rocket 2.3 20:42:46 20° S 20:46:35 57° ESE 20:52:08 10° NE
ATLAS 2AS CENTAUR R/B 3.8 20:40:08 10° NW 20:46:36 35° WSW 20:51:07 17° S
Resurs 01 Rocket 4.3 20:49:00 10° WSW 20:50:27 11° W 20:51:55 10° WNW
Cosmos 1898 Rocket 4.3 20:47:00 10° SW 20:52:11 53° WNW 20:57:27 10° NNE
Cosmos 44 Rocket 4.0 20:49:24 10° NW 20:54:34 54° NE 20:57:52 21° ESE
Cosmos 2366 rocket 4.0 20:49:57 10° N 20:56:12 82° E 20:59:52 27° SSE
Cosmos 494 Rocket 4.4 20:52:52 10° NNW 20:57:58 53° ENE 21:00:38 26° SE
Terra 2.4 20:55:27 23° SSW 20:58:13 52° W 21:02:53 10° NNW
Cosmos 1975 2.7 20:56:09 10° N 21:00:10 83° E 21:01:34 39° SSE
Cosmos 1707 Rocket 4.4 20:58:17 15° SSW 21:01:47 48° WNW 21:06:07 10° N
Meteor 2-9 Rocket 4.3 20:56:04 10° NNW 21:01:49 77° W 21:04:57 27° S
Cosmos 2181 Rocket 3.9 20:58:38 23° S 21:02:41 84° E 21:08:50 10° N
Meteor 1-18 Rocket 4.1 21:00:09 25° S 21:03:34 80° E 21:09:09 10° NNE
RESURS DK-1 2.4 21:10:25 10° NW 21:14:34 70° WSW 21:15:50 43° S
NOSS 2-1 (D) 4.4 21:10:43 10° NW 21:15:15 61° NE 21:19:20 21° ESE
Cosmos 1356 Rocket 4.1 21:18:08 10° N 21:22:17 44° ENE 21:23:38 33° ESE
Okean 3 4.4 21:22:42 29° ESE 21:23:26 31° E 21:27:10 10° NNE
Cosmos 2150 Rocket 4.1 21:22:26 34° S 21:24:38 62° ESE 21:29:50 10° NNE
Cosmos 1378 4.0 21:25:54 33° ESE 21:26:09 34° E 21:29:33 10° NNE
Cosmos 1733 Rocket 4.4 21:22:52 10° NNW 21:26:40 30° W 21:28:47 20° SW
Cosmos 2263 4.2 21:23:09 24° SSW 21:26:49 81° ESE 21:32:38 10° NNE
Cosmos 2218 Rocket 4.3 21:21:03 10° NNW 21:27:15 61° W 21:30:56 26° SSW
Cosmos 2098 4.0 21:25:18 10° N 21:28:19 89° E 21:28:32 75° SSE
Cosmos 1125 Rocket 3.7 21:27:38 37° SSE 21:29:24 54° ESE 21:34:29 10° NNE
COSMOS 2487 3.8 21:28:29 10° N 21:31:30 28° ENE 21:32:17 25° E
ALOS 2 3.2 21:31:08 33° ESE 21:32:39 46° ENE 21:36:53 10° N
Cosmos 2227 Rocket 4.3 21:30:07 10° N 21:34:24 21° NE 21:38:38 10° E
Cosmos 2297 Rocket 4.0 21:31:57 10° NNW 21:36:39 26° NE 21:41:19 10° E
COSMOS 2455 3.9 21:31:19 10° NNW 21:37:00 41° NE 21:42:05 13° ESE
Spot 4 3.8 21:38:11 40° SSE 21:39:57 88° WSW 21:44:51 10° NNW
Cosmos 1300 Rocket 4.4 21:36:07 10° N 21:40:15 38° ENE 21:41:34 31° ESE
Meteor 2-4 Rocket 3.7 21:39:42 29° SSW 21:42:43 78° WNW 21:48:16 10° N
Nadezhda 3 Rocket 4.1 21:40:51 34° SSE 21:43:38 66° E 21:49:46 10° NNE
ISS -3.3 21:43:39 10° W 21:47:00 62° N 21:50:00 13° E
Cosmos 1908 Rocket 4.2 21:43:27 10° NNW 21:47:46 48° W 21:49:13 34° SW
Cosmos 1766 4.4 21:47:15 10° N 21:50:50 32° ENE 21:51:45 28° E
Sich 1 Rocket 3.7 21:55:29 10° N 22:00:01 67° ENE 22:01:13 46° SE
BREEZE-M DEB (TANK) 2.3 21:56:45 10° WNW 22:00:29 69° NNW 22:00:29 69° NNW
Cosmos 1867 4.1 21:56:39 10° SW 22:02:02 60° NW 22:07:29 10° NE
Lacrosse 5 2.0 22:02:09 44° S 22:03:07 51° SE 22:08:04 10° ENE
Cosmos 1943 Rocket 4.0 22:00:50 10° WSW 22:05:38 28° NW 22:10:27 10° NNE
Cosmos 2242 Rocket 4.3 22:05:59 31° SW 22:07:43 49° WNW 22:12:07 10° N
SeaSat 1 4.3 22:05:43 10° ENE 22:08:35 15° ESE 22:09:01 15° ESE
Okean 2 Rocket 3.3 22:05:40 10° N 22:10:01 59° ENE 22:11:08 44° SE
Okean 1-7 3.6 22:08:56 33° SW 22:10:24 48° WNW 22:14:36 10° N
Cosmos 2151 Rocket 4.1 22:07:51 10° N 22:12:16 50° ENE 22:13:33 38° ESE
Cosmos 1656 Rocket 4.2 22:08:33 18° SW 22:12:29 56° NW 22:17:59 10° NNE
NOSS 2-1 (E) 4.2 22:07:49 10° NW 22:12:44 70° SW 22:15:25 35° SSE
ATLAS CENTAUR R/B 2.1 22:11:29 22° WSW 22:13:34 44° NW 22:17:18 10° NNE
Meteor 1-23 Rocket 4.5 22:12:35 38° SSE 22:14:43 61° E 22:20:28 10° NNE
SL-27 R/B 4.1 22:13:04 10° NW 22:15:31 23° W 22:15:31 23° W
Meteor 1-13 Rocket 4.2 22:16:23 36° SSW 22:18:42 77° WNW 22:24:15 10° N
Cosmos 1782 Rocket 4.4 22:16:15 10° NNW 22:20:24 40° W 22:21:28 34° SW
Cosmos 1842 4.4 22:22:36 30° ESE 22:22:56 30° E 22:26:24 10° NNE
USA 81 4.4 22:19:22 10° N 22:24:36 56° E 22:26:35 35° SE
USA 215 3.6 22:20:34 10° E 22:27:01 65° NNE 22:33:29 10° WNW
Cosmos 1269 Rocket 4.0 22:21:58 10° NNW 22:27:16 74° WSW 22:28:56 44° S
Cosmos 1733 3.0 22:23:45 10° N 22:27:34 87° W 22:27:56 72° S
Cosmos 2219 4.2 22:22:14 10° NNW 22:27:41 44° NE 22:31:59 16° ESE
Cosmos 1934 Rocket 3.9 22:23:31 10° NNW 22:29:40 80° W 22:32:08 38° S
MTI 3.9 22:27:15 10° N 22:29:57 66° NNW 22:29:57 66° NNW
Cosmos 2369 Rocket 3.8 22:25:56 10° WSW 22:30:57 32° NW 22:36:02 10° NNE
Cosmos 1378 Rocket 4.4 22:31:58 33° ESE 22:32:46 36° E 22:36:44 10° NNE
Cosmos 2251 Rocket 4.5 22:27:56 10° NNW 22:32:56 42° ENE 22:36:10 20° ESE
Cosmos 44 Rocket 4.3 22:31:20 10° NW 22:35:55 32° WSW 22:36:33 31° SW
Cosmos 2344 4.5 22:29:35 10° NW 22:38:43 59° WSW 22:46:12 26° S
Cosmos 1400 Rocket 3.0 22:35:14 10° N 22:39:17 63° ENE 22:40:04 51° SE
COBE Rocket 4.3 22:38:52 39° SSW 22:40:24 54° W 22:45:30 10° NNW
Thor Agena Rocket 3.6 22:36:51 10° NNE 22:42:09 75° ESE 22:43:56 43° S
Lacrosse 4 Rocket 3.9 22:42:11 10° ESE 22:42:25 10° ESE 22:43:15 10° E
Cosmos 1707 4.3 22:45:53 23° ESE 22:46:28 24° E 22:49:36 10° NE
Cosmos 1315 Rocket 4.3 22:47:02 10° N 22:50:36 30° ENE 22:52:13 22° ESE
Cosmos 1697 Rocket 4.3 22:52:02 18° SE 22:53:46 21° E 22:57:48 10° NE
Meteor 1-22 Rocket 4.4 22:48:25 10° NNW 22:54:30 82° W 22:57:03 38° S
BREEZE-M DEB (TANK) 4.3 22:54:00 34° SE 22:54:31 35° SE 23:03:12 10° ENE
Cosmos 1726 2.6 22:53:06 10° N 22:56:44 51° ENE 22:57:18 45° ESE
Cosmos 371 Rocket 4.4 22:57:11 28° SE 22:58:22 31° ESE 23:02:40 10° NE
Okean 1 Rocket 3.1 22:56:22 10° N 23:00:46 74° E 23:01:53 48° SSE
Cosmos 2221 Rocket 4.0 23:01:50 40° SW 23:03:08 56° WNW 23:07:38 10° N
Cosmos 1674 Rocket 3.5 23:03:14 53° S 23:04:17 88° E 23:08:47 10° N
COSMOS 2487 4.2 23:03:31 10° NW 23:05:34 21° W 23:05:34 21° W
Cosmos 1980 Rocket 4.3 23:05:54 11° SE 23:08:22 14° E 23:11:18 10° ENE
ALOS 2 4.2 23:08:32 21° WSW 23:09:13 22° W 23:12:40 10° NW
Cosmos 1727 Rocket 4.1 23:10:28 34° S 23:13:22 74° E 23:19:43 10° NNE
Helios 1A 3.4 23:15:54 35° SE 23:17:24 56° ENE 23:21:30 10° N
SL-24 R/B 4.1 23:16:38 42° SSE 23:18:01 77° ENE 23:22:15 10° NNW
Cosmos 2227 Rocket 2.2 23:13:38 10° NNW 23:19:20 83° ENE 23:22:32 27° SSE
Cosmos 1674 4.4 23:18:31 20° ESE 23:19:35 23° E 23:22:39 10° NE
Cosmos 2297 Rocket 2.1 23:15:38 10° NNW 23:21:19 77° WSW 23:23:53 34° SSE
CZ-4 R/B 4.5 23:16:50 10° NNE 23:21:28 45° E 23:23:05 33° SSE
Cosmos 1656 3.8 23:20:17 38° S 23:22:13 60° ESE 23:27:41 10° NE
COSMOS 2455 3.1 23:17:18 10° NW 23:23:07 52° WSW 23:25:10 36° SSW
Okean 2 3.3 23:22:15 55° SSW 23:23:09 85° W 23:27:20 10° N
ISS -3.0 23:20:33 10° WNW 23:22:53 41° W 23:22:53 41° W
APEX 4.2 23:22:40 10° NNW 23:27:06 63° ENE 23:31:28 16° SE
Timation 1 Rocket 4.4 23:24:27 10° NNW 23:30:29 78° ENE 23:35:00 18° SE
ADEOS II 4.4 23:28:50 10° NE 23:31:33 14° E 23:34:14 10° ESE
MOZ.5/SAFIR/RUBIN 5/SL-8 4.2 23:29:29 26° SE 23:31:54 57° ENE 23:36:29 10° N
Cosmos 1459 Rocket 4.0 23:26:59 10° N 23:33:15 78° ENE 23:36:45 28° SSE
Meteor 2-10 4.3 23:28:53 10° NNW 23:34:02 51° W 23:35:40 37° SW
Cosmos 1455 Rocket 3.5 23:30:34 10° N 23:34:51 55° ENE 23:36:47 30° SE
Cosmos 2082 4.0 23:31:57 10° NNW 23:37:39 65° ENE 23:42:46 13° SE
USA 276 2.0 23:39:54 88° NW 23:39:55 88° N 23:43:07 10° E
SL-16 R/B 3.2 23:34:51 12° SE 23:40:33 53° ENE 23:46:37 10° N
TSX-5 3.6 23:38:21 10° NW 23:41:48 66° WSW 23:42:25 55° S
Cosmos 1953 2.7 23:39:46 10° N 23:43:43 57° ENE 23:45:19 32° SE
Cosmos 614 Rocket 3.9 23:40:25 10° NNW 23:45:30 71° WSW 23:47:41 35° S
Lacrosse 5 2.5 23:41:16 11° W 23:46:09 54° NNW 23:51:10 10° NE
Cosmos 1470 3.4 23:42:36 10° NNW 23:46:17 39° W 23:46:48 37° WSW
SeaSat 1 2.4 23:41:45 10° NNE 23:46:44 88° ESE 23:48:47 36° SSW
Cosmos 2016 Rocket 4.1 23:42:39 10° N 23:48:55 71° ENE 23:53:05 22° SSE
Cosmos 304 Rocket 4.2 23:51:19 33° SSE 23:53:10 52° ESE 23:57:51 10° NNE
ATLAS CENTAUR R/B 4.1 23:51:26 10° NW 23:53:25 14° NNW 23:55:27 10° NNE
Resurs 1-4 Rocket 2.9 23:48:37 10° NNE 23:53:36 42° E 23:56:32 22° SSE
